星链-3569 (STARLINK-3569 )

导读

STARLINK-3569是美国SpaceX公司星链(Starlink)卫星互联网星座的一员,于北京时间2022年2月25日发射入轨。作为星链一代v1.5批次卫星,属于低轨通信卫星,运行在近地轨道,配备相控阵天线与氪离子推进器,可提供高速低延迟宽带互联网服务,旨在为全球偏远无基础设施地区提供网络接入,属于星链大规模星座组网计划中的一员,助力实现全球全域的卫星互联网覆盖。

基本信息
目录编号:
51811
目录名称:
STARLINK-3569
国际标识:
2022-017AV
轨道中心:
EARTH
卫星名称:
星链-3569
卫星全名:
星链-3569 (STARLINK-3569 )
卫星状态:
在轨 (已飞行1573 天)
发射日期:
2022-02-25 UTC
国别 :
美国 (US)
星等 :
--
轨道信息
数据来源 国际轨道数据 AOE轨道数据
星历时间 2026-06-17T18:50:53+0800
6小时前
查看轨道信息
2026-06-15T10:00:00+0800
2天前
查看轨道信息
半长轴 6917.926km 6917.909km
偏心率 0.000124 0.0001315
轨道倾角 53.160° 53.158°
近地点辐角 80.679° 95.547°
升交点赤经 251.173° 261.821°
平近点角 279.435° 351.425°
近地点 538.931km 538.862km
远地点 540.647km 540.682km
周期 95.438分钟 95.438分钟
每日圈数 15.088252 15.088309
详细信息
固有亮度:
5
最大亮度:
2.5
卫星平台:
Starlink v1.5
覆盖范围:
全球
运营商:
太空探索技术公司
运营商所在国:
美国
制造商(研发单位):
太空探索技术公司
制造商所在国:
美国
使用方式:
暂无
卫星简介
星链(Starlink)计划是由太空探索技术公司(SpaceX)提出的一个巨型低轨卫星互联网星座项目,计划在2019年至2024年间在太空搭建由约1.2万颗卫星组成的“星链”网络,其中1584颗将部署在地球上空550千米处的近地轨道,并从2020年开始工作。该卫星仍在工作。
2D轨道图
3D轨道图
轨道高度分析图
轨道倾角分析图
轨道综合分析图
查看轨道综合分析图